Theta_e
320 320 320 319 320 320 318 318 318 318 317 317 317 317 317 317 317 314 310 317 323 330 319 315 313 312 312 309 311 311 300 298 300 302 304 310 308 311 313 309 311 313 312 320 333
320 319 320 319 319 319 318 318 318 318 317 317 318 317 316 318 312 310 320 328 334 331 315 311 310 310 308 307 308 305 300 300 306 307 306 308 308 308 307 307 308 310 314 317 322
321 319 319 319 319 319 317 317 317 317 317 316 317 318 318 316 309 312 337 332 331 326 317 313 313 310 306 307 305 305 301 305 306 308 309 307 307 309 307 305 308 308 310 313 314
319 318 318 318 318 318 316 316 316 316 317 316 315 316 317 313 300 316 333 333 332 320 315 310 310 307 304 302 306 301 305 306 306 308 307 305 307 305 307 307 311 312 313 313 313
317 317 317 317 317 317 317 317 316 316 317 316 316 316 314 309 308 320 332 330 322 317 311 309 307 306 302 304 305 302 304 306 307 307 307 307 304 305 306 310 312 312 312 312 313
317 317 317 317 317 317 317 317 316 316 316 315 315 316 309 301 319 322 323 324 319 315 312 310 308 309 305 304 303 305 305 305 306 306 307 304 304 306 308 311 310 311 311 312 312
316 316 316 317 316 317 317 316 315 315 315 315 315 315 308 308 321 321 321 321 319 317 312 312 312 308 307 304 307 306 302 304 304 305 304 307 303 304 309 311 310 311 312 312 313
316 315 316 316 316 316 316 315 315 315 315 316 316 313 305 319 321 319 321 318 320 317 315 314 313 309 306 308 305 302 302 297 303 306 304 306 299 307 311 310 309 310 311 312 314
316 315 315 315 315 314 315 314 314 315 316 317 313 310 305 322 315 320 320 316 317 316 315 314 311 306 304 300 298 300 295 297 299 306 305 304 300 307 311 310 310 311 312 313 314
315 313 313 314 314 314 313 313 315 315 314 315 314 305 309 309 316 318 320 320 315 313 309 307 305 300 300 297 291 296 296 298 298 303 305 303 302 306 311 310 310 311 312 313 314
314 313 312 313 313 313 312 312 309 306 310 308 308 307 310 317 319 315 318 316 314 310 301 304 298 295 297 299 300 300 300 298 301 304 303 302 303 305 309 310 310 311 312 314 315
311 311 313 313 312 312 311 307 307 311 302 310 311 311 315 316 310 312 317 309 308 302 303 301 296 301 302 301 299 299 298 298 302 304 304 303 302 306 308 309 310 311 312 314 316
309 310 310 311 311 310 311 313 313 313 302 304 307 306 310 313 309 310 313 310 306 302 301 298 301 304 302 300 298 298 297 298 299 302 304 302 300 302 307 310 311 312 314 314 316
309 309 310 310 306 310 306 312 314 316 295 296 302 307 308 310 305 314 315 310 306 301 302 302 305 303 301 299 300 295 301 301 300 298 293 302 291 300 303 306 308 311 314 314 316
309 310 310 309 305 303 309 314 313 310 282 300 306 315 311 305 307 307 315 310 303 303 303 300 302 301 300 300 302 299 304 301 300 298 296 296 294 298 303 302 306 311 313 314 321
309 310 309 307 308 309 314 314 310 293 282 296 304 305 305 306 305 309 308 312 310 304 304 303 308 304 303 305 304 305 302 301 300 297 290 295 294 295 300 303 306 311 313 316 320
308 309 308 309 301 310 311 308 291 284 296 294 297 302 303 303 303 304 303 303 300 295 296 301 302 305 306 301 304 302 298 290 288 289 288 297 294 297 304 308 309 310 315 318 319
308 306 307 310 312 313 308 297 284 291 293 298 297 297 297 301 300 302 302 300 304 301 297 296 293 302 305 302 299 299 298 291 285 287 290 298 293 297 308 311 312 314 315 317 318
306 308 307 311 313 312 300 287 287 292 295 294 295 293 293 297 296 298 299 302 303 304 297 296 295 304 305 305 303 298 295 301 295 296 293 296 299 305 307 309 311 311 314 315 316
303 305 307 315 316 310 297 289 292 297 297 296 290 293 290 293 291 295 297 302 304 305 307 301 294 302 303 305 304 301 303 294 296 286 286 294 294 296 302 306 309 311 311 314 316
305 300 310 317 314 302 290 291 294 299 299 295 294 291 292 292 293 290 291 302 305 303 305 303 299 299 302 299 297 299 297 300 299 297 291 289 290 305 304 306 309 310 313 314 314
302 294 312 315 298 298 293 295 297 298 301 299 299 295 292 295 293 293 292 296 303 305 299 304 302 292 296 303 304 302 300 300 295 293 296 295 294 307 308 308 311 309 313 313 313
294 298 309 309 291 294 297 296 297 297 296 297 297 298 299 294 291 294 297 301 304 302 303 305 300 293 295 300 303 299 301 303 304 303 293 293 294 307 308 310 311 311 310 313 313
296 292 303 306 303 295 292 292 294 300 298 299 298 299 297 295 298 294 297 298 305 305 308 309 302 297 290 295 299 297 299 302 301 297 294 296 297 302 305 308 310 309 309 312 311
298 294 299 293 295 296 296 295 293 292 298 298 295 296 296 292 295 295 298 299 304 305 304 307 298 300 299 299 299 299 299 300 298 301 296 298 296 302 306 308 309 313 311 310 309
294 293 294 293 297 295 295 294 294 295 296 293 290 292 295 289 292 293 298 297 298 302 301 304 298 299 297 297 299 297 297 300 300 301 300 299 297 304 309 310 308 310 310 309 309
300 299 295 292 294 293 294 295 295 298 298 298 296 294 294 298 302 303 304 304 304 301 300 301 298 295 292 298 296 291 295 296 301 303 302 297 302 307 307 307 308 309 309 309 309
Wind_Speed
13 14 13 13 13 13 15 16 15 15 17 17 17 17 18 20 23 22 24 19 12 9 7 11 13 17 17 18 19 19 16 17 23 22 16 20 6 5 5 3 10 3 9 5 9
13 14 14 14 13 13 14 15 15 15 15 16 16 16 19 17 24 28 25 22 12 14 11 17 17 18 17 17 18 19 15 23 21 20 18 14 2 3 6 7 13 10 13 12 7
15 14 15 15 15 14 14 15 15 15 15 16 16 16 16 17 19 8 11 25 21 17 18 18 20 19 21 19 21 23 21 19 21 24 13 12 15 4 10 12 11 16 17 16 13
14 15 16 15 15 14 16 16 17 16 15 14 15 17 16 12 9 8 10 13 14 17 17 20 22 21 22 22 22 24 23 22 25 25 5 10 14 15 13 15 12 14 9 12 13
14 15 16 15 14 15 16 16 17 17 16 15 15 15 11 12 20 16 11 12 13 16 21 22 23 22 23 21 22 24 22 22 21 22 20 8 16 17 17 13 14 13 13 12 15
14 15 15 15 15 15 15 16 15 15 17 17 15 15 9 19 16 24 16 12 13 19 21 22 19 20 20 23 24 20 21 21 23 23 16 19 19 17 17 17 15 16 14 14 15
16 15 15 15 15 17 18 17 16 18 19 19 17 11 15 29 14 6 14 15 16 19 21 22 23 19 20 19 21 23 18 21 21 22 21 17 22 21 19 15 17 17 14 14 15
14 15 16 16 17 18 19 20 20 21 22 16 12 11 13 18 22 21 18 17 19 20 21 19 20 20 18 16 18 22 22 20 20 20 23 18 19 17 22 17 16 12 12 14 13
16 16 17 17 18 20 19 21 23 22 14 10 8 13 14 8 19 20 21 19 20 16 18 16 16 19 15 20 17 20 17 25 23 24 22 24 20 21 11 14 12 12 13 13 12
18 16 17 17 19 20 21 26 22 12 7 8 12 7 13 16 13 19 22 19 21 17 19 16 12 15 16 17 19 19 22 21 21 21 26 22 14 23 13 14 12 11 12 11 13
20 20 20 19 22 22 18 13 8 8 9 13 14 13 20 15 19 17 22 20 20 21 21 20 16 21 26 25 22 21 21 22 17 19 14 15 18 17 14 14 14 12 11 10 11
22 22 23 23 24 23 16 10 14 20 23 24 30 31 31 29 13 16 23 22 25 25 24 20 23 25 23 23 24 23 24 21 16 17 8 14 16 18 15 11 12 12 10 10 10
21 20 22 24 23 19 14 18 19 18 19 27 27 30 31 31 29 22 27 27 25 28 28 26 22 24 24 23 24 23 23 21 15 18 13 10 13 12 18 12 12 11 2 5 8
20 19 19 21 17 11 18 14 10 13 13 18 22 23 35 34 32 29 27 27 22 28 28 26 25 27 26 26 23 22 22 19 14 12 14 19 15 15 16 15 12 10 9 9 12
21 20 19 11 15 11 15 18 12 8 11 13 11 11 10 37 19 32 26 28 30 25 24 25 25 28 24 24 26 21 18 20 15 17 11 18 14 13 19 18 18 10 8 10 14
22 21 18 15 13 19 20 14 12 10 16 14 11 8 12 22 37 16 31 29 26 28 24 27 25 24 27 17 25 19 18 17 19 13 17 19 16 14 11 23 20 17 14 11 16
25 23 19 14 16 16 16 11 11 14 8 19 23 14 11 17 25 33 30 29 25 25 25 24 29 27 21 17 19 19 17 11 12 14 14 21 21 13 3 4 19 17 14 16 14
27 30 20 15 15 17 11 10 21 13 25 23 32 25 7 16 15 28 27 27 30 28 18 21 23 27 18 22 18 21 19 12 20 14 17 21 21 19 18 18 17 15 15 15 13
31 13 14 14 16 12 8 12 18 22 26 28 27 24 23 3 9 15 25 29 29 30 27 20 24 24 19 18 20 21 21 19 16 3 3 6 15 17 16 19 21 16 15 15 16
13 17 14 13 4 8 6 17 26 29 28 28 31 27 19 5 8 9 7 16 31 30 27 21 11 17 25 21 22 24 19 19 15 7 12 9 4 6 15 19 20 18 15 15 14
8 9 3 7 3 3 10 19 26 28 17 18 33 28 21 17 8 3 7 15 18 22 25 22 6 10 10 24 19 17 12 4 7 7 5 5 2 12 7 15 16 19 16 14 13
8 9 5 6 5 8 13 17 15 20 24 20 25 24 21 8 11 6 10 7 23 14 22 24 9 2 18 13 22 21 17 15 4 7 7 5 5 13 6 8 3 11 19 16 14
6 16 10 8 5 9 15 18 28 10 6 10 18 17 19 12 12 16 8 3 11 5 12 11 12 12 14 7 14 21 22 18 18 9 18 7 7 7 10 15 13 13 3 10 12
5 8 4 3 8 10 10 12 20 14 7 10 15 14 12 13 17 12 7 3 5 13 19 8 4 10 7 7 2 13 16 12 10 4 2 8 10 8 6 13 13 16 16 16 9
4 7 13 9 12 19 19 18 19 8 4 7 9 7 11 10 12 17 6 5 9 11 8 6 6 4 7 12 4 11 11 24 21 13 13 9 3 13 11 9 4 20 16 13 13
5 6 6 14 20 21 18 15 18 18 7 5 2 15 12 5 9 8 3 9 6 13 11 2 5 6 2 16 14 7 8 12 18 28 4 9 4 9 6 5 4 5 12 11 13
3 5 6 7 12 15 15 20 21 13 2 6 8 12 13 10 2 7 8 7 3 4 12 7 6 3 3 2 14 3 8 9 20 8 10 11 9 22 16 14 9 9 9 11 13
Wind_Direction
327 325 321 321 319 318 321 322 321 320 321 319 318 316 315 314 304 281 256 246 220 202 178 262 204 222 230 245 238 232 248 248 247 256 258 265 194 123 208 346 295 260 230 53 105
316 323 320 318 315 316 320 318 317 317 317 317 316 314 314 318 305 282 258 241 214 157 220 227 216 215 221 225 230 229 232 243 256 257 262 303 109 193 154 220 254 242 245 257 150
309 315 321 319 317 317 318 315 312 313 316 315 312 316 320 320 298 261 13 216 183 168 229 229 240 213 223 221 221 224 241 249 242 262 287 299 311 165 246 217 231 228 230 239 238
323 321 320 320 318 317 315 314 313 311 307 307 309 311 311 301 267 89 119 121 158 194 222 228 234 222 223 226 227 232 231 243 265 277 265 282 288 281 268 246 264 256 258 260 232
324 323 322 318 317 317 313 310 308 304 305 301 301 304 299 231 243 245 154 155 173 205 210 210 223 222 223 229 230 232 238 239 253 260 273 237 260 259 257 265 251 256 263 247 256
323 322 318 314 314 311 305 299 298 296 296 296 295 294 248 256 259 246 191 173 192 199 209 215 222 222 234 232 233 235 236 245 243 262 248 251 251 249 249 248 251 248 249 243 234
328 324 320 315 317 312 308 303 297 296 293 286 283 262 248 241 265 168 208 193 213 198 208 217 228 225 230 243 242 255 246 245 236 247 258 246 244 241 250 233 247 214 225 243 228
320 320 319 317 317 310 304 303 298 296 295 284 257 243 251 259 233 251 248 207 217 199 224 218 228 239 245 246 256 243 243 249 232 231 238 240 255 249 230 216 229 219 214 217 225
314 316 315 314 309 309 303 297 286 288 292 273 215 219 261 207 223 221 238 208 204 207 220 236 222 235 229 241 234 231 241 234 244 246 215 220 239 251 201 201 210 218 209 216 203
318 317 314 309 305 303 302 292 279 279 234 208 269 213 244 243 210 216 210 212 200 199 210 223 211 224 228 221 222 220 226 241 243 232 236 213 215 250 177 188 210 228 212 203 199
321 318 313 311 309 306 311 311 195 181 211 219 203 230 276 224 219 191 200 210 198 207 201 200 209 210 218 226 229 247 239 227 236 237 197 216 219 240 243 196 226 204 230 218 198
323 324 320 315 310 305 294 256 285 321 294 235 237 243 256 275 238 205 189 202 198 206 202 200 220 219 218 225 232 236 252 246 220 251 247 201 229 241 242 247 195 215 233 225 200
321 319 318 313 312 294 236 265 287 280 277 273 250 243 226 240 245 202 189 207 199 205 205 217 209 222 228 222 228 229 238 247 252 220 233 245 231 263 275 238 217 215 249 274 256
314 313 315 320 287 312 288 278 312 349 279 275 240 237 234 225 230 238 187 203 220 213 215 218 230 218 215 233 219 229 226 245 239 262 242 215 243 217 233 260 242 180 209 230 250
307 308 308 309 297 284 295 318 318 282 275 303 356 119 206 211 215 209 213 199 216 205 213 220 217 231 219 212 226 230 224 221 232 229 272 280 228 251 203 216 240 179 175 209 105
308 303 304 290 248 255 267 263 274 235 246 269 334 271 220 215 213 214 208 197 214 235 217 229 218 221 231 208 224 213 230 226 215 219 233 239 262 250 254 198 210 170 174 147 108
307 302 291 274 261 287 321 296 240 235 263 247 244 238 335 236 211 225 190 196 211 218 233 216 228 216 224 203 223 199 217 220 222 220 237 218 223 245 325 93 180 152 143 118 112
311 304 278 256 246 239 237 254 242 265 245 266 294 290 306 282 318 224 204 197 205 218 222 223 213 218 201 215 200 202 205 213 215 224 229 221 221 219 181 93 32 103 125 124 142
311 298 289 272 236 217 215 239 249 259 271 285 291 287 286 29 214 299 266 206 196 214 219 222 223 201 208 201 219 194 212 226 243 7 326 255 237 211 164 128 149 146 154 159 155
311 293 273 244 172 187 221 250 267 277 284 283 283 287 260 279 349 300 292 277 193 199 228 233 232 220 206 189 212 229 208 216 230 186 248 236 273 177 173 145 157 170 149 155 135
285 289 129 101 166 181 232 253 259 263 312 303 297 270 268 263 155 212 291 265 281 199 214 236 227 240 240 197 198 206 223 191 303 226 237 206 241 298 7 350 156 154 161 149 152
303 289 105 169 247 229 252 276 291 284 292 293 283 264 265 253 275 262 215 267 316 334 316 219 157 135 239 191 200 212 194 172 222 223 255 250 147 214 139 287 116 354 157 153 164
289 282 281 223 273 294 340 324 312 328 256 297 298 307 317 254 254 250 205 246 271 302 300 218 199 176 211 244 255 226 204 206 209 164 213 217 123 188 222 180 173 168 27 158 142
286 292 326 192 254 273 308 293 292 334 339 339 303 292 289 264 269 260 210 212 240 242 309 327 263 178 212 206 272 240 213 208 203 251 190 277 149 191 246 161 169 149 142 205 142
264 275 332 309 317 314 308 297 315 341 272 4 330 289 332 272 268 264 186 186 192 235 295 331 196 10 169 208 128 280 213 197 216 204 193 217 162 226 178 125 134 166 166 148 155
292 347 338 295 293 306 304 315 312 335 318 357 336 291 311 231 262 318 301 190 206 180 227 183 118 14 64 162 200 231 338 265 211 226 135 164 158 319 157 52 132 177 158 161 141
329 286 281 302 293 295 308 311 319 357 13 279 337 322 310 310 53 15 12 4 316 214 193 176 169 121 312 343 125 105 206 300 255 221 206 197 168 182 174 170 170 226 168 96 84